Location: Conflandey
(47.7287°N, 6.0456°E)
Time: 01:52:50
(UTC+00:00)

Cosmos 2360 Rocket - Pass Details

Date: 24 October 2021
Orbit: 832 x 846 km, 71.0° (Epoch: 28 November)

Event Time Altitude Azimuth Distance (km) Brightness Sun altitude
Rises 19:58:10 0° 243° (WSW) 3,385 5.8 -35.0°
Reaches altitude 10° 20:00:57 10° 255° (WSW) 2,457 5.1 -35.4°
Maximum altitude 20:05:44 28° 313° (NW) 1,549 4.0 -36.1°
Enters shadow 20:07:54 22° 347° (NNW) 1,776 4.1 -36.5°
